CW3467 Weather Reports


Display with metric or nautical units.
time (UTC)temp
F
wind
direction
speed
MPH
gust
MPH
rain 1hr
in
rain 24hr
in
rain mn
in
humidity
%
barometer
mb
20260831112003 84 343 1.0 6.0 0.00 0.00 0.00 42 1021.3
20260831111503 84 52 1.0 4.0 0.00 0.00 0.00 42 1021.4
20260831111003 83 26 1.0 4.0 0.00 0.00 0.00 42 1021.5
20260831110503 83 246 1.0 4.0 0.00 0.00 0.00 43 1021.3
20260831110003 83 301 1.0 4.0 0.00 0.00 0.00 45 1021.5
20260831105503 82 350 1.0 4.0 0.00 0.00 0.00 44 1021.5
20260831105003 82 20 1.0 4.0 0.00 0.00 0.00 45 1021.6
20260831104503 81 119 1.0 4.0 0.00 0.00 0.00 45 1021.8
20260831104024 81 134 1.0 4.0 0.00 0.00 0.00 46 1021.6
20260831103503 82 0 0.0 0.0 0.00 0.00 0.00 46 1021.7
20260831103003 81 0 0.0 0.0 0.00 0.00 0.00 48 1021.5
20260831102503 82 0 0.0 0.0 0.00 0.00 0.00 47 1021.9
20260831102003 81 0 0.0 0.0 0.00 0.00 0.00 48 1021.7
20260831101503 81 0 0.0 0.0 0.00 0.00 0.00 47 1021.7
20260831101003 81 0 0.0 0.0 0.00 0.00 0.00 47 1021.9
20260831100503 81 0 0.0 0.0 0.00 0.00 0.00 47 1021.8
20260831100003 80 0 0.0 0.0 0.00 0.00 0.00 47 1021.6
20260831095503 79 0 0.0 0.0 0.00 0.00 0.00 49 1021.8
20260831095003 79 0 0.0 0.0 0.00 0.00 0.00 49 1021.7
20260831094503 78 0 0.0 0.0 0.00 0.00 0.00 50 1021.6
20260831094003 80 0 0.0 0.0 0.00 0.00 0.00 49 1021.8
20260831093503 79 0 0.0 0.0 0.00 0.00 0.00 50 1021.6
20260831093024 78 0 0.0 0.0 0.00 0.00 0.00 51 1021.8
20260831092503 78 0 0.0 0.0 0.00 0.00 0.00 51 1021.8
20260831092003 78 0 0.0 0.0 0.00 0.00 0.00 50 1021.8
20260831091503 77 0 0.0 0.0 0.00 0.00 0.00 50 1021.8
20260831091003 77 0 0.0 0.0 0.00 0.00 0.00 51 1021.9
20260831090524 76 0 0.0 0.0 0.00 0.00 0.00 53 1022.0
20260831090003 75 0 0.0 0.0 0.00 0.00 0.00 54 1021.8
20260831085524 75 0 0.0 0.0 0.00 0.00 0.00 56 1021.9
20260831085003 76 0 0.0 0.0 0.00 0.00 0.00 56 1021.8
20260831084503 75 0 0.0 0.0 0.00 0.00 0.00 55 1021.8
20260831084003 75 0 0.0 0.0 0.00 0.00 0.00 57 1021.7
20260831083503 74 0 0.0 0.0 0.00 0.00 0.00 56 1021.7
20260831083003 74 0 0.0 0.0 0.00 0.00 0.00 58 1021.6
20260831082503 73 0 0.0 0.0 0.00 0.00 0.00 58 1021.6
20260831082003 72 0 0.0 0.0 0.00 0.00 0.00 61 1021.7
20260831081503 72 0 0.0 0.0 0.00 0.00 0.00 59 1021.4
20260831081003 71 0 0.0 0.0 0.00 0.00 0.00 61 1021.7
20260831080503 71 0 0.0 0.0 0.00 0.00 0.00 61 1021.5
20260831080003 70 0 0.0 0.0 0.00 0.00 0.00 63 1021.6
20260831075503 70 0 0.0 0.0 0.00 0.00 0.00 63 1021.6
20260831075003 69 0 0.0 0.0 0.00 0.00 0.00 64 1021.5
20260831074503 68 0 0.0 0.0 0.00 0.00 0.00 66 1021.5
20260831074003 68 0 0.0 0.0 0.00 0.00 0.00 67 1021.4
20260831073524 67 0 0.0 0.0 0.00 0.00 0.00 66 1021.6
20260831073003 67 0 0.0 0.0 0.00 0.00 0.00 67 1021.6
20260831072503 67 0 0.0 0.0 0.00 0.00 0.00 68 1021.5
20260831072003 66 0 0.0 0.0 0.00 0.00 0.00 68 1021.7
20260831071503 66 0 0.0 0.0 0.00 0.00 0.00 69 1021.4
20260831071003 65 0 0.0 0.0 0.00 0.00 0.00 70 1021.3
20260831070503 65 0 0.0 0.0 0.00 0.00 0.00 69 1021.4
20260831070003 64 0 0.0 0.0 0.00 0.00 0.00 72 1021.2
20260831065503 64 0 0.0 0.0 0.00 0.00 0.00 72 1021.2
20260831065003 64 0 0.0 0.0 0.00 0.00 0.00 74 1021.2
20260831064503 63 0 0.0 0.0 0.00 0.00 0.00 72 1021.2
20260831064003 63 0 0.0 0.0 0.00 0.00 0.00 73 1021.2
20260831063503 63 0 0.0 0.0 0.00 0.00 0.00 73 1021.2
20260831063003 63 0 0.0 0.0 0.00 0.00 0.00 73 1021.2
20260831062524 63 0 0.0 0.0 0.00 0.00 0.00 73 1020.9
20260831062003 63 0 0.0 0.0 0.00 0.00 0.00 73 1020.9
20260831061503 62 0 0.0 0.0 0.00 0.00 0.00 73 1020.7
20260831061003 63 0 0.0 0.0 0.00 0.00 0.00 73 1020.7
20260831060503 63 0 0.0 0.0 0.00 0.00 0.00 72 1020.7
20260831060003 63 0 0.0 0.0 0.00 0.00 0.00 72 1020.7
20260831055524 63 0 0.0 0.0 0.00 0.00 0.00 73 1020.6
20260831055003 63 0 0.0 0.0 0.00 0.00 0.00 72 1020.6
20260831054503 63 0 0.0 0.0 0.00 0.00 0.00 71 1020.6
20260831054003 63 0 0.0 0.0 0.00 0.00 0.00 72 1020.6
20260831053524 63 0 0.0 0.0 0.00 0.00 0.00 71 1020.5
20260831053003 62 0 0.0 0.0 0.00 0.00 0.00 72 1020.3
20260831052503 63 0 0.0 0.0 0.00 0.00 0.00 72 1020.3
20260831052003 63 0 0.0 0.0 0.00 0.00 0.00 72 1020.3
20260831051503 63 0 0.0 0.0 0.00 0.00 0.00 71 1020.3
20260831051003 63 0 0.0 0.0 0.00 0.00 0.00 71 1020.3
20260831050503 63 0 0.0 0.0 0.00 0.00 0.00 71 1020.2
20260831050003 64 0 0.0 0.0 0.00 0.00 0.00 70 1020.1
20260831045503 63 0 0.0 0.0 0.00 0.00 0.00 70 1020.2
20260831045003 64 0 0.0 0.0 0.00 0.00 0.00 70 1020.2
20260831044503 64 0 0.0 0.0 0.00 0.00 0.00 68 1020.3
20260831044003 64 0 0.0 0.0 0.00 0.00 0.00 69 1020.2
20260831043503 64 0 0.0 0.0 0.00 0.00 0.00 69 1020.2
20260831043003 64 0 0.0 0.0 0.00 0.00 0.00 69 1020.4
20260831042503 64 0 0.0 0.0 0.00 0.00 0.00 69 1020.1
20260831042024 64 0 0.0 0.0 0.00 0.00 0.00 69 1020.3
20260831041524 64 0 0.0 0.0 0.00 0.00 0.00 69 1020.1
20260831040503 63 0 0.0 0.0 0.00 0.00 0.00 70 1020.1
20260831040003 64 0 0.0 0.0 0.00 0.00 0.00 70 1020.1
20260831035503 64 0 0.0 0.0 0.00 0.00 0.00 69 1020.1
20260831035024 64 0 0.0 0.0 0.00 0.00 0.00 69 1020.0
20260831034524 64 0 0.0 0.0 0.00 0.00 0.00 69 1020.0
20260831034024 64 0 0.0 0.0 0.00 0.00 0.00 68 1020.1
20260831033503 64 0 0.0 0.0 0.00 0.00 0.00 68 1019.8
20260831033003 64 0 0.0 0.0 0.00 0.00 0.00 67 1019.9
20260831032503 65 0 0.0 0.0 0.00 0.00 0.00 67 1019.9
20260831032003 65 0 0.0 0.0 0.00 0.00 0.00 67 1019.9
20260831031503 65 0 0.0 0.0 0.00 0.00 0.00 67 1019.8
20260831031003 65 0 0.0 0.0 0.00 0.00 0.00 66 1019.9
20260831030503 64 0 0.0 0.0 0.00 0.00 0.00 67 1019.8
20260831030003 65 0 0.0 0.0 0.00 0.00 0.00 67 1019.8
20260831025503 65 0 0.0 0.0 0.00 0.00 0.00 67 1020.0
20260831025003 65 0 0.0 0.0 0.00 0.00 0.00 66 1019.9
20260831024503 66 0 0.0 0.0 0.00 0.00 0.00 65 1019.8
20260831024003 65 0 0.0 0.0 0.00 0.00 0.00 65 1019.8
20260831023503 65 0 0.0 0.0 0.00 0.00 0.00 65 1019.6
20260831023003 65 0 0.0 0.0 0.00 0.00 0.00 65 1019.8
20260831022503 65 0 0.0 0.0 0.00 0.00 0.00 66 1019.8
20260831022003 65 0 0.0 0.0 0.00 0.00 0.00 66 1019.8
20260831021503 65 0 0.0 0.0 0.00 0.00 0.00 66 1019.9
20260831021024 65 0 0.0 0.0 0.00 0.00 0.00 66 1019.9
20260831020503 65 0 0.0 0.0 0.00 0.00 0.00 65 1019.7
20260831020003 66 0 0.0 0.0 0.00 0.00 0.00 65 1019.9
20260831015503 66 0 0.0 0.0 0.00 0.00 0.00 64 1020.0
20260831015003 66 215 0.0 1.0 0.00 0.00 0.00 64 1020.0
20260831014503 67 221 0.0 1.0 0.00 0.00 0.00 63 1019.9
20260831014003 67 219 0.0 1.0 0.00 0.00 0.00 63 1019.9
20260831013503 67 200 0.0 1.0 0.00 0.00 0.00 63 1020.1
20260831013024 66 206 0.0 1.0 0.00 0.00 0.00 63 1020.0
20260831012503 66 215 0.0 1.0 0.00 0.00 0.00 63 1020.1
20260831012003 66 220 0.0 1.0 0.00 0.00 0.00 63 1019.9
20260831011503 66 222 0.0 1.0 0.00 0.00 0.00 64 1020.0
20260831011024 66 221 0.0 2.0 0.00 0.00 0.00 64 1020.0
20260831010503 66 222 1.0 2.0 0.00 0.00 0.00 65 1020.0
20260831010004 66 220 1.0 2.0 0.00 0.00 0.00 64 1020.1
20260831005504 67 217 1.0 2.0 0.00 0.00 0.00 64 1019.9
20260831005004 66 210 0.0 1.0 0.00 0.00 0.00 64 1020.0
20260831004504 67 190 0.0 1.0 0.00 0.00 0.00 63 1019.8
20260831004004 67 212 0.0 1.0 0.00 0.00 0.00 62 1020.0
20260831003504 67 225 0.0 1.0 0.00 0.00 0.00 63 1019.9
20260831003025 67 214 0.0 1.0 0.00 0.00 0.00 63 1020.1
20260831002525 68 215 1.0 2.0 0.00 0.00 0.00 61 1020.0
20260831002004 68 219 1.0 2.0 0.00 0.00 0.00 61 1019.8
20260831001525 68 222 1.0 2.0 0.00 0.00 0.00 61 1020.0
20260831001004 68 221 1.0 2.0 0.00 0.00 0.00 61 1020.0
20260831000504 68 220 1.0 2.0 0.00 0.00 0.00 60 1020.0
20260831000004 68 222 1.0 2.0 0.00 0.00 0.00 60 1019.9
20260830235504 67 223 0.0 1.0 0.00 0.00 0.00 61 1020.0
20260830235004 67 223 0.0 1.0 0.00 0.00 0.00 62 1019.9
20260830234504 67 219 0.0 1.0 0.00 0.00 0.00 62 1019.9
20260830234004 68 203 0.0 1.0 0.00 0.00 0.00 61 1020.2
20260830233504 67 0 0.0 0.0 0.00 0.00 0.00 61 1020.0
20260830233004 68 0 0.0 0.0 0.00 0.00 0.00 62 1020.0
20260830232504 67 0 0.0 0.0 0.00 0.00 0.00 61 1020.0
20260830232004 67 220 0.0 1.0 0.00 0.00 0.00 62 1020.1
20260830231504 68 230 1.0 3.0 0.00 0.00 0.00 61 1020.1
20260830231004 69 227 1.0 3.0 0.00 0.00 0.00 61 1020.1
20260830230525 69 219 1.0 2.0 0.00 0.00 0.00 59 1020.0
20260830230004 69 221 1.0 2.0 0.00 0.00 0.00 59 1019.9
20260830225504 69 223 1.0 2.0 0.00 0.00 0.00 59 1020.0
20260830225004 69 222 1.0 2.0 0.00 0.00 0.00 58 1019.9
20260830224504 69 222 1.0 1.0 0.00 0.00 0.00 58 1020.0
20260830224004 70 223 1.0 1.0 0.00 0.00 0.00 58 1019.7
20260830223504 70 224 1.0 1.0 0.00 0.00 0.00 58 1019.8
20260830223004 69 227 1.0 1.0 0.00 0.00 0.00 58 1019.8
20260830222504 70 223 0.0 1.0 0.00 0.00 0.00 58 1019.5
20260830222004 71 219 0.0 1.0 0.00 0.00 0.00 56 1019.6
20260830221504 71 220 0.0 1.0 0.00 0.00 0.00 56 1019.7
20260830221004 71 220 0.0 1.0 0.00 0.00 0.00 56 1019.7
20260830220525 71 221 0.0 1.0 0.00 0.00 0.00 56 1019.8
20260830220004 71 0 0.0 0.0 0.00 0.00 0.00 56 1019.8
20260830215504 71 221 0.0 1.0 0.00 0.00 0.00 56 1019.6
20260830215004 72 186 0.0 1.0 0.00 0.00 0.00 54 1019.5
20260830214504 72 194 0.0 1.0 0.00 0.00 0.00 54 1019.2
20260830214004 72 219 0.0 1.0 0.00 0.00 0.00 53 1019.4
20260830213504 72 223 0.0 1.0 0.00 0.00 0.00 53 1019.4
20260830213004 72 224 0.0 1.0 0.00 0.00 0.00 53 1019.0
20260830212504 72 220 0.0 1.0 0.00 0.00 0.00 54 1019.4
20260830212004 72 222 1.0 2.0 0.00 0.00 0.00 54 1019.1
20260830211525 72 223 0.0 2.0 0.00 0.00 0.00 53 1019.0
20260830211025 73 223 0.0 2.0 0.00 0.00 0.00 53 1019.1
20260830210504 73 222 0.0 1.0 0.00 0.00 0.00 52 1019.0
20260830210004 74 219 0.0 1.0 0.00 0.00 0.00 52 1018.9
20260830205504 74 219 1.0 2.0 0.00 0.00 0.00 52 1019.0
20260830205004 74 221 1.0 2.0 0.00 0.00 0.00 51 1018.9
20260830204504 74 215 1.0 2.0 0.00 0.00 0.00 50 1018.9
20260830204004 75 208 1.0 2.0 0.00 0.00 0.00 49 1018.9
20260830203504 75 217 1.0 2.0 0.00 0.00 0.00 49 1018.7
20260830203004 75 219 1.0 2.0 0.00 0.00 0.00 49 1018.8
20260830202504 75 219 0.0 2.0 0.00 0.00 0.00 50 1018.7
20260830202025 75 214 0.0 2.0 0.00 0.00 0.00 49 1018.8
20260830201504 76 217 0.0 2.0 0.00 0.00 0.00 48 1018.6
20260830201004 77 216 1.0 2.0 0.00 0.00 0.00 48 1018.6
20260830200504 77 215 0.0 1.0 0.00 0.00 0.00 47 1018.4
20260830200004 77 204 0.0 2.0 0.00 0.00 0.00 47 1018.4
20260830195504 78 193 0.0 2.0 0.00 0.00 0.00 47 1018.3
20260830195004 78 191 0.0 2.0 0.00 0.00 0.00 46 1018.2
20260830194504 79 250 1.0 4.0 0.00 0.00 0.00 45 1018.2
20260830194004 79 249 1.0 4.0 0.00 0.00 0.00 46 1017.9
20260830193504 79 236 1.0 3.0 0.00 0.00 0.00 46 1017.9
20260830193004 79 233 1.0 3.0 0.00 0.00 0.00 46 1017.8
20260830192504 78 231 1.0 3.0 0.00 0.00 0.00 46 1017.9
20260830192004 78 223 1.0 2.0 0.00 0.00 0.00 45 1017.9
20260830191503 78 224 1.0 2.0 0.00 0.00 0.00 45 1017.9
20260830191004 79 221 1.0 2.0 0.00 0.00 0.00 45 1017.5
20260830190504 80 216 1.0 2.0 0.00 0.00 0.00 43 1017.6
20260830190004 80 218 1.0 2.0 0.00 0.00 0.00 43 1017.5
20260830185504 80 220 1.0 2.0 0.00 0.00 0.00 42 1017.3
20260830185004 81 219 1.0 2.0 0.00 0.00 0.00 42 1017.5
20260830184504 81 219 1.0 2.0 0.00 0.00 0.00 41 1017.5
20260830184004 81 219 0.0 1.0 0.00 0.00 0.00 42 1017.4
20260830183504 81 221 0.0 1.0 0.00 0.00 0.00 42 1017.4
20260830183004 82 220 0.0 1.0 0.00 0.00 0.00 43 1017.2
20260830182504 82 0 0.0 0.0 0.00 0.00 0.00 41 1017.2
20260830182004 83 215 0.0 1.0 0.00 0.00 0.00 40 1017.3
20260830181504 85 220 0.0 2.0 0.00 0.00 0.00 39 1017.3
20260830181004 85 222 0.0 2.0 0.00 0.00 0.00 38 1017.3
20260830180503 87 225 0.0 2.0 0.00 0.00 0.00 38 1017.0
20260830180025 87 224 0.0 2.0 0.00 0.00 0.00 36 1017.0
20260830175504 87 216 0.0 2.0 0.00 0.00 0.00 34 1017.1
20260830175025 88 209 0.0 2.0 0.00 0.00 0.00 34 1017.1
20260830174504 88 229 1.0 4.0 0.00 0.00 0.00 33 1017.2
20260830174004 88 228 1.0 4.0 0.00 0.00 0.00 35 1016.9
20260830173524 88 217 1.0 3.0 0.00 0.00 0.00 34 1017.0
20260830173003 89 225 1.0 3.0 0.00 0.00 0.00 34 1017.2
20260830172503 88 227 1.0 2.0 0.00 0.00 0.00 33 1017.2
20260830172004 89 207 0.0 3.0 0.00 0.00 0.00 32 1016.9
20260830171503 89 129 1.0 4.0 0.00 0.00 0.00 35 1017.0
20260830171003 89 212 1.0 4.0 0.00 0.00 0.00 34 1017.2
20260830170503 90 234 1.0 3.0 0.00 0.00 0.00 32 1017.1
20260830170004 89 256 1.0 7.0 0.00 0.00 0.00 32 1016.9
20260830165504 89 258 1.0 7.0 0.00 0.00 0.00 33 1017.1
20260830165004 89 257 2.0 6.0 0.00 0.00 0.00 33 1017.0
20260830164504 89 277 2.0 6.0 0.00 0.00 0.00 33 1017.1
20260830164004 89 268 2.0 6.0 0.00 0.00 0.00 34 1017.0
20260830163504 90 247 2.0 6.0 0.00 0.00 0.00 33 1016.9
20260830163025 89 276 2.0 6.0 0.00 0.00 0.00 33 1017.0
20260830162503 89 308 3.0 8.0 0.00 0.00 0.00 34 1017.1
20260830162004 89 305 3.0 8.0 0.00 0.00 0.00 33 1017.0
20260830161503 89 295 4.0 10.0 0.00 0.00 0.00 32 1017.0
20260830161004 89 295 4.0 10.0 0.00 0.00 0.00 33 1017.1
20260830160525 89 284 3.0 9.0 0.00 0.00 0.00 32 1017.0
20260830160003 89 286 3.0 10.0 0.00 0.00 0.00 33 1016.9
20260830155503 89 283 4.0 10.0 0.00 0.00 0.00 33 1017.2
20260830155024 90 278 3.0 10.0 0.00 0.00 0.00 32 1017.1
20260830154504 91 282 2.0 7.0 0.00 0.00 0.00 31 1017.1
20260830154024 90 284 2.0 8.0 0.00 0.00 0.00 32 1017.3
20260830153504 90 77 2.0 8.0 0.00 0.00 0.00 32 1017.3
20260830153024 90 84 2.0 7.0 0.00 0.00 0.00 33 1017.5
20260830152504 90 134 1.0 6.0 0.00 0.00 0.00 31 1017.3
20260830152004 91 178 2.0 6.0 0.00 0.00 0.00 31 1017.2
20260830151504 91 239 2.0 7.0 0.00 0.00 0.00 30 1017.3
20260830151004 91 230 1.0 7.0 0.00 0.00 0.00 30 1017.3
20260830150524 90 236 2.0 6.0 0.00 0.00 0.00 31 1017.4
20260830150003 90 254 2.0 7.0 0.00 0.00 0.00 31 1017.4
20260830145504 90 64 2.0 7.0 0.00 0.00 0.00 31 1017.3
20260830145003 90 63 2.0 7.0 0.00 0.00 0.00 31 1017.5
20260830144503 90 59 2.0 7.0 0.00 0.00 0.00 32 1017.6
20260830144003 90 104 1.0 7.0 0.00 0.00 0.00 32 1017.6
20260830143503 89 58 1.0 7.0 0.00 0.00 0.00 33 1017.8
20260830143003 90 10 1.0 3.0 0.00 0.00 0.00 31 1017.8
20260830142524 90 2 1.0 4.0 0.00 0.00 0.00 32 1017.9
20260830142004 91 267 1.0 4.0 0.00 0.00 0.00 32 1017.8
20260830141503 91 285 2.0 9.0 0.00 0.00 0.00 33 1018.0
20260830141003 89 65 1.0 9.0 0.00 0.00 0.00 32 1018.0
20260830140503 89 288 1.0 9.0 0.00 0.00 0.00 32 1018.1
20260830140004 90 236 1.0 4.0 0.00 0.00 0.00 32 1018.0
20260830135503 91 276 2.0 8.0 0.00 0.00 0.00 32 1018.1
20260830135004 89 316 2.0 8.0 0.00 0.00 0.00 34 1018.2
20260830134504 89 38 2.0 7.0 0.00 0.00 0.00 33 1018.3
20260830134004 87 52 2.0 8.0 0.00 0.00 0.00 33 1018.4
20260830133525 87 45 2.0 8.0 0.00 0.00 0.00 33 1018.4
20260830133025 88 260 2.0 6.0 0.00 0.00 0.00 32 1018.4
20260830132504 89 287 2.0 7.0 0.00 0.00 0.00 34 1018.3
20260830132003 88 305 2.0 7.0 0.00 0.00 0.00 33 1018.4
20260830131503 89 75 1.0 4.0 0.00 0.00 0.00 34 1018.7
20260830131004 88 64 2.0 7.0 0.00 0.00 0.00 33 1018.7
20260830130503 86 49 2.0 7.0 0.00 0.00 0.00 34 1018.5
20260830130004 87 42 1.0 7.0 0.00 0.00 0.00 34 1018.6
20260830125504 87 57 2.0 7.0 0.00 0.00 0.00 34 1018.8
20260830125004 86 56 2.0 9.0 0.00 0.00 0.00 34 1019.0
20260830124503 87 21 2.0 9.0 0.00 0.00 0.00 35 1019.0
20260830124003 87 12 2.0 6.0 0.00 0.00 0.00 35 1019.1
20260830123503 87 53 1.0 6.0 0.00 0.00 0.00 36 1019.2
20260830123003 87 62 2.0 7.0 0.00 0.00 0.00 35 1019.0
20260830122524 86 50 1.0 7.0 0.00 0.00 0.00 36 1019.4
20260830122003 86 299 1.0 3.0 0.00 0.00 0.00 35 1019.0
20260830121504 88 50 1.0 4.0 0.00 0.00 0.00 35 1019.1
20260830121003 86 42 2.0 7.0 0.00 0.00 0.00 37 1019.2
20260830120503 85 32 2.0 7.0 0.00 0.00 0.00 36 1019.4
20260830120003 86 303 1.0 6.0 0.00 0.00 0.00 37 1019.4
20260830115503 85 355 1.0 6.0 0.00 0.00 0.00 35 1019.4
20260830115003 84 51 2.0 7.0 0.00 0.00 0.00 37 1019.5
20260830114503 83 52 2.0 7.0 0.00 0.00 0.00 38 1019.7
20260830114004 85 273 1.0 4.0 0.00 0.00 0.00 38 1019.6
20260830113524 85 255 1.0 4.0 0.00 0.00 0.00 37 1020.0
20260830113003 85 202 1.0 3.0 0.00 0.00 0.00 38 1019.6
20260830112504 83 92 2.0 4.0 0.00 0.00 0.00 38 1019.8